• Currently

    Reported at Minneapolis, Minneapolis-St. Paul International Airport, MN
    9:53 AM CST SUN JUL 23 2017
  • 73°F23°C
  • Mostly Cloudy
    Mostly Cloudy
  • Feels Like:73°F23°CDew Point:59°F15°CHumidity:61% Winds:NNW 12 mph 19 kph
    Pressure:29.91 in1013 hPaVisibility:10.00 miles16090.00 meters
Time Weather Temp Dew Point
Humidity Winds Visibility Pressure Precipitation
1 hr 24 hr
Friday, July 14
23:53 23:53 Cloudy Cloudy 63°F17°C 53°F12°C 70% N 7 mphN 11 kph 10.0 miles16.1 km 30.18 in1022 hPa 0.00 in0.00 mm --
22:53 22:53 Cloudy Cloudy 63°F17°C 54°F12°C 73% N 5 mphN 7 kph 10.0 miles16.1 km 30.18 in1022 hPa 0.00 in0.00 mm --
21:53 21:53 Cloudy Cloudy 64°F18°C 54°F12°C 70% NNE 8 mphNNE 13 kph 10.0 miles16.1 km 30.15 in1021 hPa 0.00 in0.00 mm --
20:53 20:53 Cloudy Cloudy 65°F18°C 53°F12°C 66% NE 9 mphNE 15 kph 10.0 miles16.1 km 30.15 in1021 hPa 0.00 in0.00 mm --
19:53 19:53 Cloudy Cloudy 66°F19°C 54°F12°C 65% NE 8 mphNE 13 kph 10.0 miles16.1 km 30.15 in1021 hPa 0.00 in0.00 mm --
18:53 18:53 Cloudy Cloudy 67°F19°C 53°F12°C 61% NNW 8 mphNNW 13 kph 10.0 miles16.1 km 30.15 in1021 hPa 0.00 in0.00 mm --
17:53 17:53 Cloudy Cloudy 67°F19°C 53°F12°C 61% N 8 mphN 13 kph 10.0 miles16.1 km 30.15 in1021 hPa 0.00 in0.00 mm --
16:53 16:53 Cloudy Cloudy 67°F19°C 53°F12°C 61% N 13 mphN 20 kph 10.0 miles16.1 km 30.15 in1021 hPa 0.00 in0.00 mm --
15:53 15:53 Cloudy Cloudy 68°F20°C 54°F12°C 61% N 13 mphN 20 kph 10.0 miles16.1 km 30.12 in1020 hPa 0.00 in0.00 mm --
14:53 14:53 Cloudy Cloudy 69°F21°C 54°F12°C 59% NNW 12 mphNNW 19 kph 10.0 miles16.1 km 30.12 in1020 hPa 0.00 in0.00 mm --
13:53 13:53 Cloudy Cloudy 71°F22°C 54°F12°C 55% NNW 12 mphNNW 19 kph 10.0 miles16.1 km 30.12 in1020 hPa 0.00 in0.00 mm --
13:20 13:20 Mostly Cloudy Mostly Cloudy 69°F21°C 53°F12°C 57% NNW 12 mphNNW 19 kph 10.0 miles16.1 km 30.12 in1020 hPa 0.00 in0.00 mm --
12:53 12:53 Mostly Cloudy Mostly Cloudy 70°F21°C 54°F12°C 57% N 12 mphN 19 kph 10.0 miles16.1 km 30.12 in1020 hPa 0.00 in0.00 mm --
11:53 11:53 Mostly Cloudy Mostly Cloudy 67°F19°C 53°F12°C 61% N 7 mphN 11 kph 10.0 miles16.1 km 30.12 in1020 hPa 0.00 in0.00 mm --
10:53 10:53 Cloudy Cloudy 63°F17°C 52°F11°C 68% N 9 mphN 15 kph 10.0 miles16.1 km 30.12 in1020 hPa 0.00 in0.00 mm --
09:53 09:53 Mostly Cloudy Mostly Cloudy 62°F17°C 53°F12°C 73% N 12 mphN 19 kph 10.0 miles16.1 km 30.12 in1020 hPa 0.00 in0.00 mm --
08:53 08:53 Cloudy Cloudy 60°F16°C 53°F12°C 78% N 8 mphN 13 kph 10.0 miles16.1 km 30.09 in1019 hPa 0.00 in0.00 mm --
07:53 07:53 Cloudy Cloudy 59°F15°C 54°F12°C 83% N 10 mphN 17 kph 10.0 miles16.1 km 30.09 in1019 hPa 0.00 in0.00 mm --
07:10 07:10 Cloudy Cloudy 59°F15°C 54°F12°C 83% NNE 10 mphNNE 17 kph 10.0 miles16.1 km 30.09 in1019 hPa 0.00 in0.00 mm --
06:53 06:53 Cloudy Cloudy 59°F15°C 54°F12°C 83% N 9 mphN 15 kph 10.0 miles16.1 km 30.06 in1018 hPa 0.00 in0.00 mm --
05:53 05:53 Cloudy Cloudy 60°F16°C 57°F14°C 90% N 8 mphN 13 kph 10.0 miles16.1 km 30.03 in1017 hPa 0.00 in0.03 mm --
05:24 05:24 Cloudy With Light Rain Cloudy With Light Rain 61°F16°C 58°F14°C 90% N 9 mphN 15 kph 7.0 miles11.3 km 30.03 in1017 hPa 0.00 in0.03 mm --
05:12 05:12 Cloudy With Light Rain Cloudy With Light Rain 62°F17°C 59°F15°C 90% N 10 mphN 17 kph 9.0 miles14.5 km 30.03 in1017 hPa 0.00 in0.03 mm --
04:53 04:53 Cloudy Cloudy 63°F17°C 58°F14°C 84% N 10 mphN 17 kph 9.0 miles14.5 km 30 in1016 hPa 0.00 in0.00 mm --
03:53 03:53 Cloudy Cloudy 67°F19°C 60°F16°C 79% N 8 mphN 13 kph 10.0 miles16.1 km 30 in1016 hPa 0.00 in0.00 mm --
03:13 03:13 Cloudy Cloudy 69°F21°C 61°F16°C 76% NW 13 mphNW 20 kph 10.0 miles16.1 km 29.97 in1015 hPa 0.00 in0.00 mm --
02:53 02:53 Cloudy Cloudy 69°F21°C 61°F16°C 76% NW 10 mphNW 17 kph 10.0 miles16.1 km 29.97 in1015 hPa 0.00 in0.00 mm --
02:06 02:06 Cloudy Cloudy 69°F21°C 61°F16°C 76% WNW 13 mphWNW 20 kph 10.0 miles16.1 km 29.97 in1015 hPa 0.00 in0.00 mm --
01:53 01:53 Cloudy Cloudy 70°F21°C 61°F16°C 73% WNW 14 mphWNW 22 kph 10.0 miles16.1 km 29.97 in1015 hPa 0.00 in0.00 mm --
00:53 00:53 Cloudy Cloudy 71°F22°C 60°F16°C 68% WNW 9 mphWNW 15 kph 10.0 miles16.1 km 29.97 in1015 hPa 0.00 in0.00 mm --
00:48 00:48 Cloudy Cloudy 70°F21°C 61°F16°C 73% WNW 6 mphWNW 9 kph 10.0 miles16.1 km 29.97 in1015 hPa 0.00 in0.00 mm --